TimePDT,TemperatureF,Dew PointF,Humidity,Sea Level PressureIn,VisibilityMPH,Wind Direction,Wind SpeedMPH,Gust SpeedMPH,PrecipitationIn,Events,Conditions,WindDirDegrees,DateUTC
12:53 AM,57.0,25.0,29,29.49,10.0,SSE,12.7,-,N/A,,Scattered Clouds,160,2013-09-25 07:53:00
1:53 AM,53.1,26.1,35,29.48,10.0,SSE,12.7,-,N/A,,Clear,150,2013-09-25 08:53:00
2:53 AM,53.1,26.1,35,29.46,10.0,SSE,11.5,-,N/A,,Clear,160,2013-09-25 09:53:00
3:53 AM,52.0,26.1,37,29.44,10.0,SSE,15.0,-,N/A,,Clear,160,2013-09-25 10:53:00
4:53 AM,51.1,26.1,38,29.45,10.0,South,8.1,-,N/A,,Mostly Cloudy,180,2013-09-25 11:53:00
5:53 AM,53.1,25.0,34,29.46,10.0,West,13.8,-,N/A,,Overcast,260,2013-09-25 12:53:00
6:53 AM,51.1,21.9,32,29.50,10.0,West,17.3,-,N/A,,Overcast,270,2013-09-25 13:53:00
7:53 AM,50.0,25.0,38,29.53,10.0,NNW,12.7,20.7,N/A,,Overcast,330,2013-09-25 14:53:00
8:53 AM,51.1,26.1,38,29.55,10.0,North,10.4,-,N/A,,Overcast,10,2013-09-25 15:53:00
9:53 AM,50.0,25.0,38,29.57,10.0,NNW,10.4,-,N/A,,Overcast,330,2013-09-25 16:53:00
10:53 AM,51.1,25.0,36,29.56,10.0,NNW,4.6,-,N/A,,Overcast,330,2013-09-25 17:53:00
11:53 AM,51.1,24.1,35,29.55,10.0,WNW,8.1,-,N/A,,Overcast,300,2013-09-25 18:53:00
12:53 PM,51.1,23.0,33,29.55,-9999.0,Calm,Calm,-,N/A,,Overcast,0,2013-09-25 19:53:00
1:53 PM,53.1,21.0,29,29.54,10.0,Variable,4.6,-,N/A,,Overcast,0,2013-09-25 20:53:00
2:53 PM,53.1,16.0,23,29.55,10.0,West,11.5,25.3,N/A,,Overcast,270,2013-09-25 21:53:00
3:53 PM,54.0,18.0,24,29.54,10.0,WNW,16.1,20.7,N/A,,Overcast,300,2013-09-25 22:53:00
4:53 PM,52.0,19.9,28,29.55,10.0,NNW,18.4,25.3,N/A,,Overcast,330,2013-09-25 23:53:00
5:53 PM,48.9,21.0,33,29.59,10.0,NW,13.8,23.0,N/A,,Overcast,310,2013-09-26 00:53:00
6:53 PM,46.9,21.9,37,29.61,10.0,North,13.8,19.6,N/A,,Overcast,350,2013-09-26 01:53:00
7:53 PM,46.0,23.0,40,29.62,10.0,North,8.1,-,N/A,,Overcast,10,2013-09-26 02:53:00
8:53 PM,46.0,21.9,39,29.64,10.0,North,9.2,-,N/A,,Overcast,10,2013-09-26 03:53:00
10:53 PM,39.0,28.0,65,29.70,10.0,NNE,16.1,20.7,N/A,,Overcast,20,2013-09-26 05:53:00
11:53 PM,39.0,28.0,65,29.69,10.0,North,11.5,-,N/A,,Overcast,10,2013-09-26 06:53:00